Regional Weather Roundup
Issued by NWS Grand Forks, ND

Home | Current Version | Previous Version | Text Only | Print | Product List | Glossary Off
Versions: 1 2 3 4 5 6 7 8 9 10 11 12 13 14 15 16 17 18 19 20 21 22 23 24 25 26 27 28 29 30 31 32 33 34 35 36 37 38 39 40 41 42 43 44 45 46 47 48 49 50

000
ASUS43 KFGF 281910
RWRFGF
PRAIRIE TO PINES  WEATHER ROUNDUP
NATIONAL WEATHER SERVICE EASTERN NORTH DAKOTA/GRAND FORKS ND
200 PM CDT SAT MAR 28 2015

 **SATELLITE DATA USED TO AUGMENT SKY COVER AT AUTOMATED STATIONS**
 *****  WEATHER ACROSS EASTERN NORTH DAKOTA  *****

CITY           SKY/WX    TMP DP  RH WIND       PRES   REMARKS
GRAND FORKS    PTSUNNY   45  28  51 S29G37    29.91F
GRAND FRKS AFB NOT AVBL
GRAND FRKS NWS   N/A     45 N/A N/A S21         N/A
DEVILS LAKE    MOSUNNY   39  34  81 S24G31    29.79F
FARGO          SUNNY     48  26  42 S23G37    29.97F
WAHPETON ARPT  PTCLDY    45  27  49 S22G33    30.01F
$$

 ***** WEATHER ACROSS CENTRAL AND WESTERN NORTH DAKOTA  *****

CITY           SKY/WX    TMP DP  RH WIND       PRES   REMARKS
BISMARCK       SUNNY     57  34  41 S18G28    29.76F
MINOT          SUNNY     55  37  50 S20G25    29.61F
JAMESTOWN      MOSUNNY   46  36  68 S29G35    29.84F
MINOT AFB      SUNNY     55  46  72 S23       29.59F
GARRISON         N/A     55  39  54 S17       29.66F
WILLISTON      MOSUNNY   72  36  26 SW15      29.54F
DICKINSON      SUNNY     72  37  28 S24G32    29.62F
HETTINGER      SUNNY     72  34  24 S16G26    29.71F
$$

 *****  OTHER AIRPORT OBSERVATIONS IN OUR AREA  *****

CITY           SKY/WX    TMP DP  RH WIND       PRES   REMARKS
WALHALLA         N/A     43  37  81 S21G31    29.80F
GRAFTON AIRPOR NOT AVBL
VALLEY CITY AR MOCLDY    43  36  75 S22G32    29.89F
CANDO          NOT AVBL
CAVALIER APRT  CLOUDY    39  32  75 S23G36    29.84F
GWINNER        PTCLDY    46  32  57 S21G26      N/A
SHEYENNE NWR     N/A     44  31  60 S20       29.95S
ROLLA          MOCLDY    36  36 100 S20G25    29.72F
 ***** THE ABOVE OBSERVATIONS ARE NON NWS ARE NOT QUALITY
       CONTROLLED AND MAY MIS-REPORT RAIN FOR SNOW...
$$

  *****  WEATHER ACROSS NORTHERN MINNESOTA  *****

CITY           SKY/WX    TMP DP  RH WIND       PRES   REMARKS
FLAG ISLAND    PTSUNNY   34  25  69 S16       29.93F WCI  23
WARROAD        MOSUNNY   43  27  52 S14G26    29.94F
ROSEAU         MOSUNNY   43  28  56 S26       29.92F
HALLOCK        CLOUDY    45  30  57 S28G38    29.88F
THF RVR FALLS  MOSUNNY   43  28  56 S22G28    29.95F
BAUDETTE       MOSUNNY   41  19  41 S18G31    29.97F
WASKISH        MOSUNNY   45  19  36 CALM      30.00F
CROOKSTON      SUNNY     46  27  46 S26G36    29.95F
STEPHEN NDAWN    N/A     45  28  53 S25         N/A
GREENBUSH NDAW   N/A     43  30  61 S22         N/A
$$
  *****  WEATHER ACROSS CENTRAL AND WEST MINNESOTA  *****

CITY           SKY/WX    TMP DP  RH WIND       PRES   REMARKS
FOSSTON        MOSUNNY   43  23  45 S23G30    29.97F
BEMIDJI        SUNNY     43  20  41 S15G25    30.00F
PARK RAPIDS    MOSUNNY   45  21  38 S20G29    30.02F
ELBOW LAKE     CLOUDY    42  27  56 S23G30    30.05F
WADENA         PTSUNNY   41  25  52 S17G28    30.05F
DETROIT LAKES  MOSUNNY   41  27  56 S20G26    30.01F
MOORHEAD       SUNNY     45  25  45 S24G31    29.99F
FERGUS FALLS   PTSUNNY   43  21  42 S23G29    30.05F
MORRIS MN      MOSUNNY   43  30  61 S24       30.05F
STAPLES        SUNNY     41  19  42 S17G25    30.07F
$$
  *****  WEATHER ELSEWHERE ACROSS MINNESOTA  *****

CITY           SKY/WX    TMP DP  RH WIND       PRES   REMARKS
DULUTH         SUNNY     40   9  28 S16       30.10F
INTRNTL FALLS  MOSUNNY   43   9  24 S10G24    30.00F
ELY            SUNNY     39   3  22 S9G18     30.05F
CLOQUET        SUNNY     41   1  19 S13G21    30.11F
WHEATON        SUNNY     43  28  56 SE20G28   30.03F
BRAINERD       SUNNY     41  17  38 S17G28    30.09F
HIBBING        SUNNY     41   5  22 SW10G21   30.06F
ALEXANDRIA     PTSUNNY   40  25  55 S22G28    30.07F
SAINT CLOUD    SUNNY     41  16  36 S20G28    30.14F
MINNEAPOLIS    SUNNY     39  15  37 S15       30.20F
$$

  *****  WEATHER ACROSS SOUTH DAKOTA  *****

CITY           SKY/WX    TMP DP  RH WIND       PRES   REMARKS
SIOUX FALLS    MOSUNNY   49  26  41 S18G29    30.06F
BROOKINGS      NOT AVBL
WATERTOWN      SUNNY     46  27  47 S24       29.99F
HURON          SUNNY     50  29  44 S20G29    29.96F
SISSETON         N/A     45  33  63 S24G30    29.98F
ABERDEEN       SUNNY     52  30  43 S23       29.94F
MITCHELL       SUNNY     52  30  43 SE23G30   30.00F
PIERRE         SUNNY     60  36  40 SE20G25   29.85F
MOBRIDGE       SUNNY     59  34  39 S21       29.80F
RAPID CITY     SUNNY     78  34  20 SE21      29.75F
$$

  *****  SOME WEATHER IN NEARBY STATES *****

CITY           SKY/WX    TMP DP  RH WIND       PRES   REMARKS
GLASGOW MT     PTSUNNY   73  37  27 S12       29.50F
GREAT FALLS MT CLOUDY    52  31  44 W26G43    29.78R
CHEYENNE WY    SUNNY     71  21  15 W24G31    30.02F
SCOTTSBLUFF NE SUNNY     78  25  14 W23G35    29.88F
OMAHA NE       MOSUNNY   50  28  42 S17       30.13F
DES MOINES IA  MOSUNNY   47  13  25 SE13      30.21F
DAVENPORT IA   SUNNY     38   9  30 SE9       30.31F
CHICAGO IL     MOSUNNY   34   7  32 NE8       30.32F
EAU CLAIRE WI  SUNNY     40   8  26 SW10G17   30.21F
LA CROSSE WI   SUNNY     40  10  29 S13       30.26F
$$

  *****  SOME NATIONAL WEATHER *****

CITY           SKY/WX    TMP DP  RH WIND       PRES   REMARKS
LA GUARDIA NY  PTSUNNY   36  25  64 N14G21    29.84S
RALEIGH NC     MOSUNNY   44  13  28 VRB7G20   30.05F
ATLANTA GA     MOSUNNY   50  14  23 NW13G23   30.13F
NEW ORLEANS LA MOSUNNY   67  43  41 VRB5      30.20F
OKLAHOMA CITY  MOSUNNY   71  44  37 CALM      30.00F
ALBUQUERQUE NM SUNNY     72  21  14 N3        30.22F
SALT LAKE CITY MOSUNNY   71  29  21 N3        30.13F
LOS ANGELES CA MOSUNNY   66  59  78 W12       30.09R
BOISE ID       SUNNY     56  30  37 N16G26    30.30R
SEATTLE WA     CLOUDY    56  44  64 S15G26    30.34R
$$

*** WEATHER ACROSS MANITOBA...SASKATCHEWAN AND ONTARIO ***
                ***ONTARIO***

CITY           SKY/WX    TMP DP  RH WIND       PRES   REMARKS
GERALDTON      PTSUNNY   36   5  27 SW17      30.03F
THUNDER BAY    NOT AVBL
SIOUX LOOKOUT  PTSUNNY   37  10  32 SW15G22   29.95F
TORONTO        SUNNY     28   0  29 NW13G23   30.16F WCI  18
BIG TROUT LK   SUNNY     36  23  60 SW15G21   29.73F
PICKLE LAKE    PTSUNNY   36  10  35 SW14G26   29.88F
DRYDEN         SUNNY     37  10  32 S21G28    29.94F
KENORA         NOT AVBL
$$
                *** MANITOBA***

CITY           SKY/WX    TMP DP  RH WIND       PRES   REMARKS
BRANDON        PTSUNNY   37  34  87 SE15      29.66F
DAUPHIN        SUNNY     37  32  81 E7        29.56F
ISLAND LAKE    CLOUDY    37  25  60 SW21G31   29.65F
PILOT MOUND      N/A     37  34  87 S26         N/A
THE PAS        PTSUNNY   39  30  70 S14       29.45F
THOMPSON       LGT SNOW  30  28  93 S6        29.50F VSB 1   WCI  24
WINNIPEG       CLOUDY    39  30  70 S28G43    29.81F
LYNN LAKE      CLOUDY    36  34  93 W8        29.43F
CHURCHILL      PTSUNNY   37  28  70 W15G21    29.38F
GILLAM         SNOW      30  27  86 SW14      29.52F VSB 1/2 WCI  20
$$
                ***SASKATCHEWAN***

CITY           SKY/WX    TMP DP  RH WIND       PRES   REMARKS
ESTEVAN        NOT AVBL
KINDERSLEY     NOT AVBL
LLOYDMINSTER   CLOUDY    41  37  87 N8        29.58R
PRINCE ALBERT  CLOUDY    41  36  81 NW13      29.45R
REGINA         CLOUDY    52  46  82 SE8       29.47F
YORKTON        SUNNY     43  36  75 S18       29.46F
N. BATTLEFORD  PTSUNNY   41  37  87 NW15      29.54R
LA RONGE       LGT RAIN  39  36  87 N6        29.49S
SASKATOON      CLOUDY    48  39  71 NW12      29.47R
SWIFT CURRENT  LGT RAIN  54  46  76 W14       29.49S
$$
NOTE: THESE ARE AUTOMATED STATIONS WITH LIMITED QUALITY CONTROL
      "FAIR" INDICATES FEW OR NO CLOUDS BELOW 12,000 FEET WITH NO
      SIGNIFICANT WEATHER AND/OR OBSTRUCTIONS TO VISIBILITY.
      SKY/WX - SKY CONDITION AND SIGNIFICANT WEATHER.
      TMP - AIR TEMPERATURE.    DP   - DEWPOINT TEMPERATURE.
      RH  - RELATIVE HUMIDITY.  PRES - PRESSURE.
      HX  - HEAT INDEX.         WCI  - WIND CHILL INDEX.
$


USA.gov is the U.S. government's official web portal to all federal, state and local government web resources and services.